O3B FM15

Last updated on Sat Jul 18 2026 00:03:21 GMT+0000 (Coordinated Universal Time)

1 43231U 18024A 26198.47615478 -.00000025 00000+0 00000+0 0 9992 2 43231 0.0529 359.5109 0002596 114.6826 245.8296 5.00115790152544
UTC large
Height (km)
Speed (km/s)
/
Latitude / Longitude
Inclination (degrees)
Orbital Period (minutes)
Azimuth
Elevation
Range (km)
Doppler Factor

Next 0 passes for location: London (51.5072 / 0.1276)

No passes found over London.
O3B FM15